CW5646 Weather Reports


time (UTC)temp
F
wind
direction
speed
knots
gust
knots
rain 1hr
in
rain 24hr
in
rain mn
in
humidity
%
barometer
mb
20260505123724 52 180 0.0 1.7 0.00 0.00 0.00 91 1014.9
20260505122221 52 175 0.9 2.6 0.00 0.00 0.00 91 1014.9
20260505120722 52 98 0.0 0.0 0.00 0.00 0.00 91 1014.9
20260505115221 52 98 0.0 0.0 0.00 0.00 0.00 91 1014.9
20260505113725 52 98 0.0 0.0 0.00 0.00 0.00 91 1014.9
20260505112215 52 98 0.0 0.0 0.00 0.00 0.00 91 1014.8
20260505110729 52 98 0.0 1.7 0.00 0.00 0.00 92 1014.6
20260505102217 51 157 0.0 1.7 0.00 0.00 0.00 92 1014.3
20260505100718 51 157 0.0 2.6 0.00 0.00 0.00 92 1014.3
20260505095224 51 166 0.9 3.5 0.00 0.00 0.00 92 1014.3
20260505093724 51 228 0.9 3.5 0.00 0.00 0.00 91 1014.1
20260505092304 51 196 0.0 4.3 0.00 0.00 0.00 91 1014.0
20260505090725 51 189 1.7 4.3 0.00 0.00 0.00 90 1013.9
20260505085217 52 193 2.6 6.1 0.00 0.00 0.00 90 1013.8
20260505083740 52 196 2.6 5.2 0.00 0.00 0.00 89 1013.9
20260505082231 53 185 3.5 6.1 0.00 0.00 0.00 88 1013.8
20260505080727 53 185 2.6 6.1 0.00 0.00 0.00 88 1013.7
20260505075233 53 204 1.7 4.3 0.00 0.00 0.00 88 1013.4
20260505073733 54 185 0.9 5.2 0.00 0.00 0.00 87 1013.3
20260505072231 54 206 1.7 5.2 0.00 0.00 0.00 86 1013.1
20260505070729 55 227 4.3 6.1 0.00 0.00 0.00 86 1013.1
20260505065217 55 193 1.7 6.1 0.00 0.00 0.00 86 1012.8
20260505063717 55 197 2.6 5.2 0.00 0.00 0.00 85 1012.7
20260505062215 56 238 2.6 7.8 0.00 0.00 0.00 85 1012.5
20260505060734 57 189 3.5 6.1 0.00 0.00 0.00 84 1012.4
20260505055239 57 198 0.9 3.5 0.00 0.00 0.00 83 1012.5
20260505053743 59 180 0.9 2.6 0.00 0.00 0.00 83 1012.3
20260505052227 60 197 0.9 4.3 0.00 0.00 0.00 82 1012.2
20260505050727 61 166 0.9 5.2 0.00 0.00 0.00 80 1012.2
20260505040720 63 254 0.9 4.3 0.00 0.00 0.00 79 1011.2
20260505035216 63 203 1.7 2.6 0.00 0.00 0.00 78 1011.1
20260505033723 64 204 1.7 5.2 0.00 0.00 0.00 77 1010.9
20260505032239 65 156 0.0 2.6 0.00 0.00 0.00 79 1010.7
20260505030715 66 166 0.0 3.5 0.00 0.00 0.00 78 1010.6
20260505025213 66 193 0.9 1.7 0.00 0.00 0.00 79 1010.5
20260505023736 67 193 0.9 2.6 0.00 0.00 0.00 77 1010.4
20260505022212 68 189 0.0 7.8 0.00 0.00 0.00 75 1010.4
20260505020741 68 216 0.9 4.3 0.00 0.00 0.00 76 1010.3
20260505015219 68 232 0.0 5.2 0.00 0.00 0.00 75 1010.4
20260505013719 68 93 0.9 5.2 0.00 0.00 0.00 73 1010.5
20260505012220 68 165 0.9 5.2 0.00 0.00 0.00 73 1010.6
20260505010720 69 146 0.9 4.3 0.00 0.00 0.00 73 1010.6